Location: Clay (historical)
(35.1476°N, 89.8179°W)
Time: 00:53:34
(UTC+00:00)

Cosmos 1315 Rocket - Pass Details

Date: 18 February 2026
Orbit: 493 x 510 km, 81.2° (Epoch: 7 March)

Event Time Altitude Azimuth Distance (km) Brightness Sun altitude
Rises 12:03:05 0° 184° (S) 2,559 6.3 -8.6°
Reaches altitude 10° 12:05:10 10° 182° (S) 1,683 5.4 -8.2°
Maximum altitude 12:08:51 76° 97° (E) 515 2.8 -7.5°
Drops below altitude 10° 12:12:35 10° 12° (NNE) 1,704 5.4 -6.7°
Sets 12:14:42 0° 11° (N) 2,594 6.3 -6.3°
